Temp
63 63 63 62 62 62 62 61 61 61 61 62 61 61 61 60 60 61 61 61 62 63 62 63 63 62 56 48 52 61 69 67 60 58 55 53 51 50 46 47 49 46 47 50 50 51 49
63 62 62 62 62 61 61 61 60 60 61 61 61 60 60 60 60 60 60 60 61 61 61 62 62 61 51 45 58 61 59 59 58 56 54 53 52 53 49 48 47 48 48 48 50 50 48
62 62 62 61 61 61 61 60 60 60 60 60 60 59 59 59 59 59 59 60 60 60 61 62 62 58 49 51 58 58 59 56 57 56 53 54 54 52 50 46 50 48 44 45 45 47 46
61 61 61 61 61 60 60 60 59 59 60 60 59 59 58 58 58 58 58 58 59 59 61 62 62 52 46 57 55 56 56 55 57 57 55 54 54 51 49 49 47 43 42 38 44 43 45
61 61 60 60 60 60 60 59 59 59 59 59 59 58 58 58 57 57 57 58 59 60 62 62 51 47 45 59 52 53 54 52 53 54 54 59 53 46 46 40 37 38 34 35 40 42 42
60 60 60 60 60 59 59 59 59 59 59 59 58 57 57 57 57 57 57 59 59 58 57 58 56 44 49 47 50 52 52 53 50 50 49 47 42 38 36 37 31 32 32 34 35 40 39
60 60 59 59 59 59 59 59 59 59 59 58 58 57 57 57 57 56 54 49 46 45 47 43 43 45 48 51 52 50 51 50 49 46 39 41 36 33 36 36 37 35 35 34 37 40 38
59 59 59 59 59 59 59 58 58 58 58 58 57 57 56 56 56 56 49 44 43 44 36 45 46 45 49 49 45 47 50 44 42 37 38 36 32 38 40 38 36 35 33 33 37 38 36
59 59 59 59 58 58 58 57 57 58 57 57 56 56 56 56 55 49 44 44 51 51 36 41 46 45 45 47 42 43 46 42 39 35 35 33 38 41 39 37 35 34 32 32 34 35 34
58 58 58 58 58 58 57 57 57 57 57 56 56 56 56 55 48 44 43 50 52 51 31 38 41 44 46 45 39 46 45 42 38 36 35 35 39 38 37 36 36 31 35 34 33 32 26
58 58 58 57 57 57 57 57 57 57 56 55 55 55 55 54 45 41 46 52 52 44 24 41 42 49 45 40 40 40 44 41 37 37 36 37 36 35 35 35 36 34 35 33 32 29 25
57 57 57 57 57 57 57 56 56 56 56 55 55 55 54 46 43 46 47 50 44 32 20 36 42 40 40 40 40 41 40 42 40 36 35 35 36 35 34 34 35 35 32 31 27 26 17
57 57 57 57 57 56 56 56 56 56 55 55 54 54 50 49 41 49 46 41 30 24 38 34 34 38 35 34 36 37 35 32 31 30 29 33 32 32 34 32 33 32 28 21 18 15 19
57 57 57 57 57 56 56 56 56 55 55 54 54 53 47 48 46 44 42 35 26 32 30 36 36 35 33 34 34 35 34 30 31 30 27 24 23 30 33 31 29 28 28 21 14 15 17
57 57 57 56 56 56 56 55 55 55 54 54 53 41 41 45 46 43 37 24 26 29 34 33 35 30 32 34 33 32 29 27 27 30 25 22 24 30 33 32 32 26 23 27 19 19 17
57 56 56 56 56 55 55 55 55 55 54 54 42 36 38 45 42 41 33 32 31 35 35 33 28 29 25 28 29 29 28 30 29 33 35 27 20 29 30 31 30 28 29 16 18 13 12
56 56 56 56 56 55 55 55 55 55 54 53 34 30 42 46 42 36 27 28 32 38 38 32 28 28 27 26 26 25 27 33 34 33 35 31 26 23 27 24 24 22 21 22 20 21 12
56 56 56 55 55 55 54 54 54 54 54 47 35 28 42 43 33 29 28 32 38 36 38 35 33 33 30 28 26 27 28 30 33 32 26 27 22 20 22 23 26 20 21 21 20 13 19
56 56 56 55 55 55 54 54 54 54 53 38 33 30 40 40 26 27 32 32 34 33 32 31 31 32 33 29 22 28 28 32 31 30 22 25 17 12 18 19 23 22 24 24 23 21 15
56 55 55 55 55 54 54 54 53 53 53 37 30 25 31 32 30 26 26 29 29 34 30 31 30 31 27 25 28 24 24 30 31 31 38 33 22 16 12 19 27 22 23 24 23 18 20
55 55 55 55 55 55 54 54 53 53 52 37 30 27 28 22 25 26 28 27 26 27 29 29 26 28 20 11 15 18 24 22 27 32 25 29 19 18 21 22 23 22 23 24 22 23 18
55 55 55 55 55 55 54 54 53 52 50 34 28 27 28 27 26 23 26 24 26 28 26 24 21 26 17 15 20 20 15 17 19 16 18 23 19 19 16 22 22 19 22 22 23 24 24
54 54 54 54 54 54 54 53 53 52 50 37 35 36 33 28 22 22 23 26 28 29 30 30 26 20 19 25 26 27 27 26 26 22 24 23 20 14 10 18 17 11 16 20 19 23 23
53 53 54 54 54 54 53 53 53 52 50 41 39 37 30 24 26 27 28 30 29 30 27 28 28 24 28 27 27 25 25 27 27 27 28 22 19 17 10 13 1 19 23 25 23 24 26
53 53 53 54 53 53 53 52 52 52 51 42 41 36 32 25 25 26 29 27 29 27 25 28 29 29 27 25 19 12 14 17 18 20 23 26 20 14 8 4 14 19 22 22 20 22 26
52 53 52 52 52 52 52 52 52 52 52 46 41 42 34 28 26 30 26 27 25 23 21 25 26 28 28 21 19 8 8 13 10 15 21 25 22 17 6 7 4 16 21 23 23 13 23
52 52 52 52 52 52 51 51 51 50 51 46 41 43 36 29 28 28 25 24 27 23 22 20 22 21 27 19 16 14 12 14 7 6 10 15 15 12 7 9 12 20 22 24 12 17 23
51 51 51 51 52 51 51 51 51 51 51 46 40 42 37 31 31 31 32 26 27 27 23 21 23 20 18 14 14 13 11 11 8 12 10 10 12 4 6 2 5 22 22 18 19 21 25
51 51 51 51 51 50 50 50 50 50 50 48 38 42 42 33 32 33 34 36 36 35 30 27 25 24 25 19 16 18 12 8 10 8 18 13 19 17 18 18 22 23 22 24 23 24 24
MSLP
1024.46 1024.15 1023.86 1023.51 1023.05 1022.80 1022.49 1022.10 1021.63 1021.21 1020.74 1020.16 1019.65 1019.15 1018.54 1017.99 1017.28 1016.62 1015.87 1015.11 1014.44 1014.06 1013.58 1013.20 1012.95 1012.98 1013.17 1013.23 1011.62 1010.76 1010.82 1010.98 1011.45 1011.86 1012.02 1012.35 1012.73 1012.91 1013.17 1013.13 1013.09 1013.07 1012.32 1012.24 1012.07 1012.13 1012.36
1024.91 1024.67 1024.35 1023.95 1023.57 1023.20 1022.84 1022.46 1022.00 1021.47 1020.93 1020.35 1019.78 1019.11 1018.45 1017.83 1017.09 1016.19 1015.31 1014.47 1013.72 1013.42 1012.97 1012.63 1012.44 1012.57 1013.01 1012.65 1010.83 1010.82 1011.09 1011.45 1011.68 1011.84 1012.02 1012.23 1012.16 1012.19 1012.65 1012.69 1012.81 1012.36 1012.39 1012.31 1012.21 1012.11 1012.37
1025.47 1025.07 1024.79 1024.27 1023.93 1023.53 1023.12 1022.66 1022.20 1021.62 1021.07 1020.45 1019.89 1019.19 1018.50 1017.77 1016.91 1015.93 1014.89 1013.78 1013.25 1012.60 1012.21 1011.84 1012.11 1012.45 1012.31 1011.00 1010.59 1010.67 1010.78 1011.11 1011.45 1011.78 1012.01 1012.15 1012.26 1012.31 1012.49 1012.54 1012.39 1012.40 1012.60 1012.32 1012.11 1011.96 1012.25
1025.89 1025.60 1025.23 1024.65 1024.21 1023.73 1023.26 1022.80 1022.33 1021.83 1021.24 1020.67 1020.05 1019.37 1018.55 1017.66 1016.77 1015.79 1014.51 1013.24 1012.69 1012.04 1011.50 1011.32 1011.92 1012.61 1012.00 1011.24 1011.16 1011.07 1010.96 1011.16 1011.22 1011.34 1011.65 1011.95 1012.18 1012.54 1012.67 1012.69 1012.63 1012.76 1012.96 1012.74 1011.90 1012.13 1012.23
1026.17 1025.86 1025.33 1024.75 1024.22 1023.78 1023.44 1022.96 1022.47 1021.88 1021.28 1020.63 1019.94 1019.25 1018.43 1017.56 1016.66 1015.57 1014.07 1012.62 1011.96 1011.43 1011.26 1011.51 1012.16 1012.51 1011.76 1011.24 1011.37 1011.36 1011.32 1011.41 1011.47 1011.61 1011.70 1011.87 1012.23 1012.90 1013.08 1013.32 1013.64 1013.39 1013.15 1013.04 1012.54 1012.14 1012.46
1026.25 1025.76 1025.36 1024.91 1024.49 1024.08 1023.63 1023.19 1022.69 1022.09 1021.40 1020.67 1019.91 1019.10 1018.25 1017.21 1016.17 1015.04 1013.58 1012.08 1011.76 1011.80 1011.91 1011.93 1011.96 1012.60 1011.56 1011.64 1011.54 1011.48 1011.40 1011.41 1011.66 1011.92 1012.15 1012.43 1013.03 1013.37 1013.87 1014.02 1013.73 1013.52 1013.66 1013.47 1013.26 1012.69 1012.77
1026.63 1026.25 1025.78 1025.39 1024.88 1024.34 1023.78 1023.25 1022.64 1021.95 1021.19 1020.47 1019.65 1018.73 1017.83 1016.88 1015.74 1014.71 1013.49 1012.63 1012.77 1012.65 1012.50 1012.75 1012.88 1012.39 1011.68 1011.52 1011.52 1011.73 1011.75 1011.65 1011.74 1012.16 1012.77 1013.06 1013.43 1013.34 1013.23 1013.44 1013.48 1013.53 1013.64 1013.51 1012.82 1012.49 1012.80
1026.94 1026.57 1026.11 1025.56 1024.99 1024.49 1023.91 1023.32 1022.70 1021.98 1021.27 1020.51 1019.70 1018.53 1017.42 1016.44 1015.43 1014.51 1013.95 1014.86 1015.69 1015.85 1014.40 1012.87 1012.62 1012.39 1011.79 1011.54 1011.66 1011.91 1012.04 1012.22 1012.28 1012.72 1013.06 1013.67 1013.12 1012.73 1012.87 1013.10 1013.42 1013.62 1013.72 1013.26 1012.62 1012.49 1012.80
1027.39 1026.96 1026.48 1025.95 1025.44 1024.83 1024.12 1023.45 1022.76 1022.02 1021.25 1020.44 1019.61 1018.61 1017.21 1016.13 1015.13 1014.89 1015.24 1015.78 1015.77 1015.71 1015.23 1013.08 1012.13 1012.12 1012.01 1011.83 1011.73 1011.70 1011.99 1012.16 1012.44 1012.97 1013.26 1013.33 1012.57 1012.46 1012.79 1013.17 1013.55 1013.56 1013.67 1013.13 1013.11 1013.02 1012.99
1027.47 1027.07 1026.68 1026.14 1025.52 1024.82 1024.10 1023.40 1022.58 1021.79 1021.01 1020.18 1019.27 1018.41 1017.25 1015.77 1015.46 1015.93 1015.66 1015.57 1015.21 1015.17 1015.15 1013.19 1012.24 1011.84 1012.01 1011.86 1012.21 1012.10 1011.94 1012.15 1012.54 1012.79 1013.11 1013.12 1012.63 1012.60 1012.83 1013.07 1013.26 1013.57 1013.32 1013.48 1013.65 1013.96 1014.00
1027.57 1027.15 1026.67 1026.16 1025.56 1024.88 1024.20 1023.50 1022.67 1021.83 1020.86 1019.98 1019.10 1018.04 1017.11 1016.21 1016.66 1016.43 1016.28 1015.33 1015.06 1015.17 1014.47 1012.79 1012.22 1011.92 1012.03 1012.36 1012.33 1012.40 1012.38 1012.28 1012.33 1012.57 1013.09 1012.42 1012.72 1012.92 1013.15 1013.36 1013.38 1013.51 1013.77 1013.93 1014.12 1014.32 1014.55
1027.54 1027.15 1026.70 1026.17 1025.62 1025.02 1024.34 1023.56 1022.70 1021.76 1020.90 1019.95 1018.94 1017.90 1017.03 1016.90 1016.82 1016.35 1015.91 1015.43 1015.12 1015.23 1013.60 1012.54 1011.87 1012.18 1012.34 1012.21 1012.54 1012.65 1012.70 1012.68 1012.63 1012.81 1013.08 1013.09 1013.29 1013.67 1013.95 1014.09 1014.03 1014.16 1014.41 1014.78 1015.07 1015.31 1015.21
1027.40 1027.06 1026.71 1026.22 1025.69 1025.17 1024.60 1023.83 1022.97 1021.98 1020.91 1019.89 1018.84 1017.74 1017.04 1017.06 1016.87 1016.07 1015.99 1015.64 1015.51 1014.57 1013.52 1013.67 1013.20 1012.92 1012.93 1012.95 1012.86 1013.00 1013.00 1013.34 1013.92 1013.71 1013.72 1013.80 1014.17 1014.61 1014.71 1014.74 1014.72 1014.70 1015.06 1015.63 1015.94 1016.32 1015.33
1027.59 1027.14 1026.62 1026.15 1025.63 1025.16 1024.65 1023.97 1023.07 1022.23 1021.23 1019.89 1018.53 1017.58 1017.25 1016.69 1016.62 1016.25 1016.03 1015.92 1015.71 1015.16 1014.78 1014.58 1014.22 1013.81 1013.64 1013.81 1013.59 1013.58 1013.61 1014.41 1014.80 1014.77 1014.79 1015.00 1014.97 1015.02 1015.19 1015.33 1015.38 1015.59 1015.89 1016.49 1016.66 1016.56 1016.11
1027.56 1027.17 1026.65 1026.22 1025.73 1025.18 1024.74 1024.06 1023.26 1022.27 1021.19 1020.01 1018.70 1017.92 1017.22 1016.71 1016.32 1016.31 1016.58 1016.63 1016.06 1016.00 1015.69 1015.39 1014.77 1014.50 1014.55 1014.54 1014.56 1014.47 1014.70 1015.17 1015.74 1015.52 1015.86 1016.00 1015.82 1015.61 1015.60 1015.78 1016.23 1016.54 1016.69 1016.94 1017.24 1017.02 1016.77
1027.26 1026.91 1026.57 1026.17 1025.71 1025.23 1024.72 1024.11 1023.39 1022.40 1021.40 1020.37 1019.64 1019.00 1018.02 1016.75 1016.41 1016.41 1017.17 1017.06 1016.87 1016.55 1016.03 1015.74 1015.79 1015.45 1015.46 1015.39 1015.43 1015.41 1015.44 1015.95 1016.28 1016.37 1016.30 1016.72 1016.69 1016.02 1016.24 1016.42 1016.73 1016.94 1017.15 1017.68 1017.83 1017.22 1016.49
1027.13 1026.70 1026.24 1025.79 1025.24 1024.76 1024.43 1023.89 1023.26 1022.63 1021.62 1020.70 1020.60 1019.81 1017.39 1016.56 1016.73 1017.04 1017.74 1017.84 1017.42 1017.13 1016.46 1016.22 1016.23 1016.21 1016.15 1016.57 1016.47 1016.25 1016.04 1016.31 1016.49 1016.91 1016.76 1016.93 1017.21 1017.06 1017.04 1017.27 1017.23 1017.67 1017.60 1017.71 1017.74 1017.10 1016.36
1026.81 1026.41 1025.99 1025.55 1025.04 1024.60 1024.28 1023.83 1023.30 1022.73 1021.86 1021.27 1021.79 1020.93 1017.72 1016.98 1017.98 1018.98 1018.80 1018.33 1017.96 1017.46 1017.09 1016.79 1016.78 1016.98 1016.99 1017.15 1017.07 1016.89 1016.59 1016.52 1016.82 1017.02 1017.39 1017.72 1017.74 1017.59 1017.51 1017.46 1017.65 1017.58 1017.49 1017.49 1017.24 1016.87 1016.35
1026.51 1026.02 1025.60 1025.29 1024.90 1024.46 1024.13 1023.69 1023.30 1022.86 1022.13 1022.50 1022.65 1021.68 1018.69 1018.14 1019.56 1020.13 1019.60 1019.04 1018.48 1018.01 1017.85 1017.70 1017.51 1017.59 1017.79 1018.04 1018.19 1017.55 1017.37 1017.33 1017.39 1017.30 1017.66 1017.95 1018.17 1018.29 1017.69 1018.24 1018.03 1017.67 1017.59 1017.44 1017.07 1016.43 1015.80
1025.79 1025.54 1025.19 1024.81 1024.37 1024.00 1023.76 1023.43 1023.20 1022.89 1022.43 1022.75 1023.18 1022.62 1020.90 1020.58 1021.15 1021.32 1020.93 1019.95 1019.08 1018.51 1018.53 1018.51 1018.55 1018.50 1018.75 1018.93 1018.78 1018.67 1018.33 1017.83 1017.87 1017.82 1017.82 1018.10 1018.17 1018.41 1018.24 1017.86 1017.73 1017.70 1017.34 1017.02 1016.85 1016.00 1015.20
1025.45 1025.08 1024.58 1024.16 1023.84 1023.46 1023.19 1022.93 1022.77 1022.68 1022.55 1022.93 1023.66 1023.29 1022.70 1022.30 1021.92 1022.00 1021.80 1020.77 1019.86 1019.37 1019.11 1019.18 1019.28 1019.49 1019.98 1020.36 1020.15 1019.62 1018.99 1018.89 1018.33 1017.98 1018.28 1018.33 1018.30 1018.29 1018.12 1017.68 1017.59 1017.19 1016.80 1016.23 1015.93 1015.17 1014.92
1024.88 1024.39 1023.96 1023.61 1023.31 1022.91 1022.57 1022.43 1022.30 1022.23 1022.37 1023.05 1023.66 1023.69 1022.89 1022.48 1022.28 1022.20 1021.63 1020.92 1020.30 1019.80 1019.96 1019.75 1020.00 1020.01 1020.48 1021.18 1020.76 1020.43 1019.96 1019.59 1019.16 1018.72 1018.58 1018.51 1018.32 1018.40 1018.30 1017.39 1017.08 1016.77 1015.76 1015.21 1014.93 1014.72 1014.47
1024.46 1024.00 1023.45 1022.93 1022.51 1022.22 1021.87 1021.78 1021.63 1021.55 1021.57 1022.33 1022.64 1022.71 1022.62 1022.00 1022.18 1022.13 1021.59 1020.75 1020.04 1019.89 1019.65 1019.67 1019.93 1020.47 1020.51 1020.07 1019.79 1019.47 1019.25 1018.96 1018.86 1018.76 1018.54 1018.61 1018.68 1018.81 1018.24 1017.25 1017.15 1016.40 1014.84 1014.61 1014.44 1014.21 1014.08
1023.94 1023.32 1022.72 1022.23 1021.86 1021.52 1021.13 1021.00 1020.87 1020.83 1020.87 1021.17 1021.44 1021.89 1021.87 1021.21 1021.56 1021.41 1020.93 1020.53 1020.14 1019.97 1019.91 1019.79 1020.01 1020.36 1019.75 1019.64 1019.32 1018.87 1018.69 1018.39 1018.29 1017.96 1018.25 1018.31 1018.76 1018.94 1018.54 1017.85 1017.24 1014.85 1014.14 1014.00 1014.08 1013.98 1013.93
1023.40 1022.91 1022.23 1021.60 1021.32 1020.93 1020.51 1020.22 1020.08 1019.91 1019.94 1020.04 1020.38 1020.80 1020.84 1020.33 1020.35 1020.44 1020.35 1020.30 1019.93 1019.84 1019.97 1019.86 1019.53 1019.73 1019.81 1019.97 1020.00 1019.33 1018.56 1018.39 1017.97 1017.77 1017.88 1018.13 1018.75 1018.98 1019.01 1018.54 1016.84 1014.95 1014.16 1014.07 1014.06 1014.08 1013.94
1022.66 1022.24 1021.77 1021.08 1020.67 1020.34 1019.91 1019.47 1019.26 1019.09 1018.94 1018.98 1019.06 1019.67 1020.06 1019.80 1019.38 1019.41 1019.72 1019.73 1019.71 1019.52 1019.77 1019.53 1019.54 1019.91 1020.11 1020.02 1020.25 1020.28 1019.72 1018.99 1018.84 1018.19 1018.02 1018.16 1018.52 1018.94 1019.04 1018.73 1017.18 1014.93 1014.18 1014.09 1014.32 1014.78 1014.45
1022.09 1021.47 1020.98 1020.42 1020.03 1019.62 1019.18 1018.74 1018.52 1018.35 1018.16 1018.10 1017.86 1018.18 1018.79 1018.83 1018.66 1019.04 1018.83 1019.00 1019.38 1019.70 1019.48 1019.60 1019.72 1019.94 1019.90 1020.01 1020.23 1020.16 1020.00 1019.60 1019.50 1019.15 1018.66 1018.60 1018.62 1018.90 1018.62 1018.26 1016.61 1014.83 1014.44 1014.51 1015.10 1015.72 1015.15
1021.16 1020.70 1020.16 1019.66 1019.25 1018.85 1018.43 1018.04 1017.75 1017.58 1017.49 1017.59 1017.63 1017.91 1018.32 1018.04 1017.89 1018.15 1018.03 1018.11 1018.43 1018.52 1018.55 1019.15 1019.63 1019.94 1020.07 1020.02 1020.18 1020.00 1020.26 1019.94 1019.83 1018.87 1018.19 1018.51 1018.55 1018.64 1018.67 1018.03 1016.75 1015.26 1015.22 1015.73 1016.14 1015.68 1015.94
1020.33 1019.82 1019.40 1018.94 1018.53 1018.17 1017.80 1017.43 1017.09 1016.89 1016.80 1016.86 1017.10 1017.27 1017.40 1017.62 1017.59 1017.44 1017.19 1016.85 1017.02 1017.22 1017.82 1018.10 1018.34 1018.82 1018.80 1019.24 1019.70 1019.81 1019.96 1020.02 1019.43 1019.03 1017.76 1017.83 1017.13 1017.12 1017.32 1016.24 1015.77 1015.89 1016.29 1016.34 1016.44 1016.45 1016.59
Wind_Speed
19 19 19 20 20 21 21 22 23 23 24 24 24 25 25 25 25 25 25 26 25 24 21 17 13 5 3 3 10 4 5 5 5 5 6 6 5 6 6 5 4 5 4 3 5 6 4
18 18 19 19 20 21 22 23 23 24 24 25 25 26 28 28 28 28 28 28 27 26 21 20 12 9 4 5 2 5 6 5 4 4 5 5 6 6 4 5 6 1 2 5 6 6 5
17 18 19 20 21 22 23 24 24 25 25 26 27 28 30 30 30 30 30 31 27 24 24 15 8 3 3 10 4 5 6 3 4 3 2 3 2 3 2 3 2 2 5 6 7 5 7
18 20 20 21 22 22 23 23 24 24 25 26 26 28 30 30 30 32 32 33 28 23 12 4 11 1 7 3 1 2 2 3 3 3 3 2 3 2 2 3 5 2 2 2 2 5 3
19 19 20 20 21 22 22 24 24 25 25 25 26 28 30 31 32 31 33 32 26 8 4 11 5 3 7 1 1 1 2 3 4 3 2 4 3 2 1 2 4 2 5 5 8 6 3
17 17 18 19 20 22 23 24 25 26 26 27 28 29 30 31 31 32 32 25 9 5 5 1 2 3 1 2 1 1 2 3 3 4 3 3 4 2 2 4 7 6 4 4 6 1 2
16 17 19 20 22 22 23 25 26 27 28 29 29 28 29 31 31 32 16 6 7 4 6 3 2 5 3 3 0 3 3 3 3 3 5 1 2 9 9 6 1 1 3 4 7 4 3
17 19 20 21 22 23 25 26 27 28 29 30 29 30 31 32 32 23 4 6 3 4 10 3 4 5 4 1 1 2 3 3 2 3 4 3 9 7 5 5 7 6 5 11 8 2 6
19 20 21 22 24 25 27 28 28 29 30 30 29 30 33 32 29 5 2 4 6 2 3 7 3 2 2 1 3 3 2 3 3 5 6 6 3 4 6 3 4 5 6 5 8 5 2
18 19 20 22 23 25 26 28 28 30 28 29 30 31 33 31 5 4 3 5 5 2 3 3 1 1 1 1 1 1 1 2 2 6 7 6 2 3 3 4 7 4 2 2 3 2 4
17 18 19 20 22 24 26 28 29 30 29 30 31 32 31 13 5 4 6 6 2 3 4 2 2 1 1 1 1 1 1 2 4 5 5 4 2 2 3 1 2 2 2 0 2 3 2
16 17 18 19 21 23 26 28 30 29 30 31 31 33 27 4 2 5 7 8 2 5 6 2 1 4 5 2 3 2 1 1 1 2 1 4 1 3 1 1 1 0 1 2 3 2 2
15 17 18 20 21 23 24 27 30 30 31 31 32 32 11 3 4 9 6 2 5 5 4 5 4 6 2 4 2 3 2 5 3 5 2 3 2 2 2 2 2 2 3 4 3 1 5
17 18 18 20 21 22 24 25 28 30 31 32 33 25 8 2 5 6 3 4 2 4 3 3 5 7 2 6 3 6 2 2 6 4 3 3 3 1 3 1 2 2 3 4 5 2 4
17 19 20 21 22 22 23 25 26 28 29 33 29 6 4 3 6 3 5 3 2 0 3 7 9 2 2 3 6 7 3 2 2 4 3 3 4 1 1 1 1 2 2 5 1 3 1
18 20 19 20 21 22 22 24 25 27 28 30 10 4 5 8 6 4 5 1 2 1 3 1 2 1 2 4 4 6 3 1 4 1 4 2 5 2 2 1 2 1 4 4 1 4 5
19 20 20 20 20 19 19 21 23 25 28 25 4 6 4 11 2 5 2 3 3 2 3 1 2 4 3 1 2 2 3 3 3 1 2 1 6 1 2 5 4 1 2 2 2 3 3
20 19 20 19 21 19 17 19 20 23 26 10 3 5 4 7 5 2 1 2 3 3 3 3 2 4 2 2 3 5 6 3 2 1 2 1 2 4 9 2 1 3 3 4 4 5 4
20 21 20 20 19 19 18 17 17 19 21 3 7 5 6 4 3 3 5 4 3 2 2 4 3 2 3 2 4 3 3 3 2 4 3 2 3 3 6 0 1 2 3 4 4 1 6
21 22 21 21 20 17 17 17 15 15 15 4 3 5 5 5 2 3 4 4 5 3 1 2 3 3 3 3 3 4 3 2 1 3 6 4 5 8 7 9 7 8 5 6 9 5 5
21 22 22 22 20 19 17 17 15 11 9 4 2 3 1 5 3 4 2 5 4 4 3 3 4 1 3 1 4 5 2 6 6 5 2 3 5 5 8 10 7 13 16 15 14 15 9
23 22 23 23 22 21 18 17 15 9 4 3 2 2 1 5 3 3 4 3 4 3 1 3 3 4 4 4 8 11 4 4 8 4 3 2 5 2 7 14 14 13 15 14 15 15 13
23 24 24 24 23 22 19 18 16 12 4 3 2 2 2 3 2 2 5 6 4 2 5 6 3 2 5 12 8 12 12 8 7 4 4 4 2 1 6 4 2 7 8 4 3 5 5
24 24 24 25 22 22 21 19 19 16 12 4 4 3 3 6 5 6 5 9 12 12 11 5 4 4 5 3 5 5 10 15 14 15 8 3 3 1 5 3 0 8 4 4 6 5 7
26 26 26 25 24 24 23 23 22 19 16 5 3 3 3 5 4 6 14 12 12 7 6 8 8 4 1 3 4 7 5 3 3 6 9 10 4 3 3 2 6 8 2 4 5 4 3
26 27 27 26 25 24 23 22 22 21 18 8 5 4 3 4 7 5 3 4 11 5 2 5 2 2 0 2 2 3 4 3 4 2 4 6 4 2 2 2 4 8 2 2 2 4 5
28 27 26 26 25 25 25 23 21 17 17 10 4 9 3 5 5 6 6 5 4 2 3 2 3 2 1 1 2 4 4 0 2 2 3 1 2 5 3 4 9 5 2 3 6 5 3
27 27 26 24 24 24 24 22 20 19 19 8 3 8 4 4 5 8 6 6 3 4 4 3 1 2 1 1 1 3 3 4 2 3 5 7 4 4 2 1 7 1 1 4 3 3 1
27 27 26 25 24 24 24 22 21 19 16 9 3 5 6 4 3 6 6 10 11 13 5 5 3 5 5 2 2 1 3 1 4 4 2 3 7 4 7 6 2 3 2 2 2 2 1
Wind_Direction
32 29 26 23 21 15 11 8 6 3 359 356 353 349 344 341 337 333 329 324 319 319 316 307 297 247 153 181 250 168 129 127 98 125 157 154 152 161 188 202 170 221 248 202 241 236 231
31 27 24 22 19 15 10 6 4 1 357 355 351 347 344 341 336 332 328 321 318 319 313 305 279 162 159 219 129 124 126 122 143 146 172 154 195 198 213 219 181 191 249 261 257 236 219
29 27 22 21 16 12 8 5 1 358 356 354 351 347 343 340 335 330 323 318 317 317 309 303 195 168 158 237 130 115 135 145 154 144 169 203 229 164 148 272 307 312 301 293 227 222 229
26 23 19 17 13 9 6 3 360 356 355 353 350 348 344 340 335 329 322 315 316 310 304 165 158 19 249 333 258 90 110 109 108 131 129 118 124 178 203 305 357 293 118 283 249 152 234
26 21 17 14 9 7 3 0 357 354 352 351 349 346 342 337 334 329 321 315 314 302 121 128 107 135 275 302 90 63 17 130 120 91 89 111 96 162 36 119 357 317 257 218 311 195 117
22 19 14 10 7 4 0 357 353 350 348 347 345 343 340 337 334 331 321 317 315 67 70 75 81 66 261 325 353 51 16 102 120 108 80 79 59 127 56 128 235 227 236 242 253 206 157
17 13 10 7 2 359 357 353 351 348 346 344 341 337 338 337 335 331 332 356 14 348 39 312 287 280 274 317 323 37 349 100 102 84 163 61 139 220 212 210 205 242 224 247 253 208 203
12 10 7 3 358 355 354 352 350 347 344 343 341 337 336 337 334 330 5 58 48 263 311 297 265 263 253 243 244 39 359 126 138 164 118 59 235 213 189 191 222 241 270 271 278 181 196
9 6 1 358 356 355 352 351 349 346 344 341 341 339 335 335 327 39 51 69 301 269 265 297 225 256 247 163 181 185 132 134 152 149 191 183 182 127 171 183 191 221 210 225 249 332 235
4 1 0 357 354 352 350 348 346 345 342 342 341 341 337 334 43 327 66 324 310 144 354 285 2 334 100 56 237 312 9 158 182 196 171 229 256 183 166 217 170 260 268 290 274 3 266
1 358 356 354 351 350 348 347 345 344 343 341 340 340 343 10 310 358 310 317 322 70 8 333 337 345 17 262 118 293 304 109 202 191 156 249 164 145 209 225 199 258 19 290 172 186 359
353 352 353 352 350 349 347 345 344 343 343 340 339 338 343 1 337 256 311 307 100 52 259 341 58 352 358 13 22 323 138 31 45 172 41 268 35 34 62 92 16 9 299 71 53 102 259
346 348 348 349 349 349 347 344 343 343 341 339 338 335 343 318 307 310 310 26 28 139 359 340 336 339 357 316 26 23 24 27 8 354 21 336 44 9 12 118 14 89 63 319 320 344 246
343 343 343 343 343 346 346 343 342 342 340 338 337 332 315 230 306 318 3 35 210 29 1 357 325 306 99 8 4 342 20 76 34 25 40 34 315 10 343 47 161 75 145 176 261 270 288
338 338 339 340 340 341 344 342 342 343 342 340 338 324 341 279 319 353 57 45 232 39 288 331 315 8 5 14 13 6 20 112 89 21 106 5 266 168 211 174 175 216 154 150 165 233 256
330 332 334 334 336 336 337 339 342 344 344 342 330 348 290 321 348 55 65 217 233 354 308 325 243 34 309 356 1 9 315 91 141 81 13 192 292 196 121 63 30 199 157 87 213 229 232
329 328 329 327 325 325 331 335 340 343 346 347 24 359 268 332 30 48 102 275 310 257 346 271 281 306 282 340 294 279 264 67 40 101 186 236 206 239 80 211 204 138 246 220 158 246 221
323 322 323 324 322 327 325 330 337 342 350 5 25 328 315 345 49 15 359 328 311 306 336 311 192 258 280 28 254 238 221 96 208 202 85 215 293 259 238 178 253 154 211 189 217 260 230
318 317 320 315 315 320 321 323 333 342 357 343 332 282 309 33 61 359 313 287 273 290 349 338 305 37 13 294 282 268 1 203 210 58 140 228 298 334 313 347 344 226 191 212 292 226 209
315 316 315 311 312 312 315 317 321 335 354 70 11 327 323 33 36 38 325 291 304 337 146 326 292 321 18 331 344 337 321 323 171 202 282 218 197 193 238 258 304 281 281 232 218 228 248
313 313 311 309 312 310 307 308 310 321 1 80 28 285 114 318 342 324 292 300 297 297 28 323 339 1 121 313 321 258 265 344 313 301 59 221 239 227 263 268 276 278 274 261 243 252 249
312 310 309 310 308 306 303 298 299 296 81 96 207 335 314 259 274 281 244 239 266 289 266 285 192 270 143 183 210 281 211 199 239 327 160 205 257 131 279 273 262 263 261 249 249 260 260
311 311 309 306 307 305 301 302 294 273 211 184 221 258 227 228 222 224 220 236 259 186 247 235 224 129 280 273 251 236 233 233 229 227 200 212 230 178 251 261 326 304 244 206 220 204 198
309 308 307 306 305 304 302 300 302 291 248 177 189 175 234 255 202 231 249 243 264 263 262 264 192 199 237 334 287 273 250 253 252 248 227 230 181 207 263 26 39 240 199 200 225 265 217
311 310 309 310 311 311 311 308 304 291 281 225 178 191 226 251 212 257 262 264 272 270 274 251 249 222 59 23 323 328 332 303 214 215 213 217 176 242 184 197 286 300 158 171 171 284 218
307 309 310 309 310 309 310 309 309 303 285 261 191 191 200 269 218 214 223 246 269 244 268 242 353 11 328 155 225 247 256 250 304 36 47 174 219 222 73 209 261 240 196 194 131 297 168
308 305 306 306 310 307 305 305 306 304 303 288 225 184 204 253 210 158 208 195 170 251 251 270 264 171 239 219 237 232 247 198 264 168 169 135 285 229 249 264 278 254 193 196 88 250 177
302 302 303 301 299 307 309 308 305 303 302 286 210 189 214 251 224 198 204 188 184 208 205 218 179 333 120 186 197 244 214 245 52 240 185 172 184 209 101 139 283 198 139 141 272 343 65
300 301 303 302 300 301 306 310 307 304 299 274 235 196 205 248 265 214 227 237 235 218 248 185 209 156 207 143 240 265 269 162 190 267 160 266 194 197 187 220 53 46 143 243 234 322 6